This is the latest recevied weather packets stored in our database for station/object KC5DAQ-27. If no packets are shown the sender has not sent any weather packets the latest 1 day(s).
| Time | Temp. | Humidity | Pressure | Rain* | Wind** | Luminosity | Snow |
|---|---|---|---|---|---|---|---|
| 1777985068 | 21.67° C | 95% | 1000.2 hPa | 0 mm | 2.24 m/s, 186° | 76 W/m² | - |
| 1777985007 | 21.67° C | 95% | 1000.2 hPa | 0 mm | 3.13 m/s, 179° | 70 W/m² | - |
| 1777984888 | 21.67° C | 95% | 1000.1 hPa | 0 mm | 4.02 m/s, 180° | 70 W/m² | - |
| 1777984828 | 21.67° C | 95% | 1000 hPa | 0 mm | 4.02 m/s, 161° | 95 W/m² | - |
| 1777984767 | 21.67° C | 95% | 1000.1 hPa | 0 mm | 4.02 m/s, 192° | 93 W/m² | - |
| 1777984709 | 21.67° C | 95% | 1000 hPa | 0 mm | 4.02 m/s, 169° | 90 W/m² | - |
| 1777984648 | 21.67° C | 95% | 1000 hPa | 0 mm | 4.02 m/s, 209° | 90 W/m² | - |
| 1777984587 | 21.67° C | 95% | 1000 hPa | 0 mm | 4.02 m/s, 182° | 91 W/m² | - |
| 1777984529 | 21.67° C | 95% | 1000 hPa | 0 mm | 4.47 m/s, 193° | 90 W/m² | - |
| 1777984467 | 21.67° C | 95% | 1000 hPa | 0 mm | 4.02 m/s, 176° | 81 W/m² | - |
| 1777984407 | 21.67° C | 95% | 1000 hPa | 0 mm | 3.13 m/s, 162° | 81 W/m² | - |
| 1777984348 | 21.67° C | 95% | 1000 hPa | 0 mm | 3.13 m/s, 196° | 76 W/m² | - |
| 1777984288 | 21.67° C | 95% | 1000 hPa | 0 mm | 3.58 m/s, 182° | 69 W/m² | - |
| 1777984229 | 21.67° C | 95% | 999.9 hPa | 0 mm | 3.58 m/s, 193° | 63 W/m² | - |
| 1777984167 | 21.67° C | 95% | 999.8 hPa | 0 mm | 3.58 m/s, 182° | 67 W/m² | - |
| 1777984108 | 21.67° C | 95% | 1000 hPa | 0 mm | 3.13 m/s, 189° | 62 W/m² | - |
| 1777984047 | 21.67° C | 95% | 999.9 hPa | 0 mm | 2.68 m/s, 164° | 65 W/m² | - |
| 1777983987 | 21.67° C | 95% | 999.8 hPa | 0 mm | 2.68 m/s, 168° | 60 W/m² | - |
| 1777983927 | 21.67° C | 95% | 999.9 hPa | 0 mm | 3.13 m/s, 166° | 55 W/m² | - |
| 1777983868 | 21.67° C | 95% | 999.9 hPa | 0 mm | 3.58 m/s, 165° | 51 W/m² | - |
| 1777983808 | 21.67° C | 95% | 1000 hPa | 0 mm | 3.13 m/s, 197° | 51 W/m² | - |
| 1777983747 | 21.67° C | 95% | 1000 hPa | 0 mm | 2.24 m/s, 192° | 49 W/m² | - |
| 1777983688 | 21.67° C | 95% | 1000 hPa | 0 mm | 2.24 m/s, 171° | 48 W/m² | - |
| 1777983627 | 21.67° C | 95% | 1000 hPa | 0 mm | 3.13 m/s, 183° | 46 W/m² | - |
| 1777983567 | 21.67° C | 95% | 1000 hPa | 0 mm | 3.13 m/s, 186° | 46 W/m² | - |
* Rain latest hour (hover to see other rain measurements)
** Current wind speed in m/s (hover to see current wind gust speed)